This is the latest recevied weather packets stored in our database for station/object DL3NDS-WX. If no packets are shown the sender has not sent any weather packets the latest 10 day(s).
| Time | Temp. | Humidity | Pressure | Rain* | Wind** | Luminosity | Snow |
|---|---|---|---|---|---|---|---|
| 1787924294 | 19.44° C | 92% | 1014.5 hPa | 0.25 mm | - | 322 W/m² | - |
| 1787924233 | 18.89° C | 92% | 1014.6 hPa | 0.25 mm | - | 322 W/m² | - |
| 1787924171 | 18.89° C | 91% | 1014.6 hPa | 0.25 mm | - | 257 W/m² | - |
| 1787924111 | 18.89° C | 92% | 1014.7 hPa | 0.25 mm | - | 229 W/m² | - |
| 1787924046 | 18.89° C | 92% | 1014.7 hPa | 0.25 mm | - | 232 W/m² | - |
| 1787924004 | 18.89° C | 92% | 1014.8 hPa | 0.25 mm | - | 255 W/m² | - |
| 1787923970 | 18.89° C | 92% | 1014.9 hPa | 0.25 mm | - | 269 W/m² | - |
| 1787923866 | 18.89° C | 91% | 1015 hPa | 0.25 mm | - | 360 W/m² | - |
| 1787923803 | 18.89° C | 91% | 1015.2 hPa | 0.25 mm | - | 360 W/m² | - |
| 1787923742 | 18.89° C | 92% | 1015.3 hPa | 0.25 mm | - | 360 W/m² | - |
| 1787923701 | 18.89° C | 92% | 1015.3 hPa | 0.25 mm | - | 267 W/m² | - |
| 1787923666 | 18.89° C | 92% | 1015.5 hPa | 0.25 mm | - | 246 W/m² | - |
| 1787923566 | 18.89° C | 92% | 1015.7 hPa | 0 mm | - | 230 W/m² | - |
| 1787923499 | 18.89° C | 92% | 1015.6 hPa | 0 mm | - | 216 W/m² | - |
| 1787923438 | 18.89° C | 92% | 1015.7 hPa | 0 mm | - | 200 W/m² | - |
| 1787923398 | 18.89° C | 92% | 1015.7 hPa | 0 mm | - | 197 W/m² | - |
| 1787923365 | 18.89° C | 92% | 1015.8 hPa | 0 mm | - | 206 W/m² | - |
| 1787923253 | 18.89° C | 92% | 1015.7 hPa | 0.25 mm | - | 232 W/m² | - |
| 1787923192 | 18.89° C | 92% | 1015.6 hPa | 0.25 mm | - | 211 W/m² | - |
| 1787923130 | 18.89° C | 92% | 1015.6 hPa | 0.25 mm | - | 193 W/m² | - |
| 1787923069 | 18.89° C | 92% | 1015.6 hPa | 0.25 mm | - | 190 W/m² | - |
| 1787923008 | 18.89° C | 92% | 1015.5 hPa | 0.25 mm | - | 192 W/m² | - |
| 1787922942 | 18.89° C | 92% | 1015.3 hPa | 0.25 mm | - | 185 W/m² | - |
| 1787922885 | 18.89° C | 92% | 1015.3 hPa | 0.25 mm | - | 200 W/m² | - |
| 1787922823 | 18.89° C | 92% | 1015.1 hPa | 0.25 mm | - | 223 W/m² | - |
* Rain latest hour (hover to see other rain measurements)
** Current wind speed in m/s (hover to see current wind gust speed)